Preview of NWS' New Version of Forecast
This preview is not operational and should not be used for support decisions.

Regional Weather Roundup (RWR)

Issued by National Weather Service (NWS)

                            
000
ASUS42 KTBW 211918
RWRFL 
FLORIDA REGIONAL WEATHER ROUNDUP
NATIONAL WEATHER SERVICE TAMPA BAY RUSKIN FL
300 PM EDT SUN JUL 21 2019

NOTE: "FAIR" INDICATES FEW OR NO CLOUDS BELOW 12,000 FEET WITH NO
SIGNIFICANT WEATHER AND/OR OBSTRUCTIONS TO VISIBILITY.

FLZ001>010-012>015-112-114-115-212000-
PANHANDLE FLORIDA
  
CITY           SKY/WX    TMP DP  RH WIND       PRES   REMARKS
PENSACOLA      FAIR      86  73  65 S10       30.06F                  
PENSACOLA NAS  PTSUNNY   85  75  72 S9        30.06F                  
MILTON NAS     FAIR      86  74  67 VRB5        N/A                   
CRESTVIEW      LGT RAIN  84  74  71 VRB3      30.07F                  
DUKE FIELD     FAIR      85  73  67 CALM      30.05F                  
VALPARAISO     FAIR      88  73  61 SW13      30.05F HX  96           
MARY ESTHER    MOSUNNY   85  73  67 S3        30.04F                  
TRI COUNTY     FAIR      92  72  51 VRB5      30.03F HX  99           
PANAMA CITY    PTSUNNY   89  72  56 S12       30.05S HX  96           
TYNDALL AFB    FAIR      87  75  68 S9        30.05F HX  96           
APALACHICOLA   FAIR      86  75  69 S8        30.06S HX  95           

STATION/POSITION SKY/WX   TEMP    WIND        PRES    WAVE   SWELL
                          AIR SEA DIR/SP/G            HT/PER HT/PER
                          (F)     (DEG/KT/KT) (MB)    (FT/S) (FT/S)
30.1N   87.6W              80 85  160/ 10/ 14 1018.4
29.2N   88.2W              79 84  220/ 10/ 12 1017.9
28.8N   86.0W                 86  270/  4/  8 1018.2F   1/ 4   2/ 5
PANAMA CITY BEAC           84 86  210/  8/  9 1018.6
TOWER C                    84     150/  2/  3 1018.2F
28.5N   84.5W              80     150/ 14/ 17 1019.1

$$
FLZ011-016>038-118-127-128-134-139-239-212000-
NORTH FLORIDA
  
CITY           SKY/WX    TMP DP  RH WIND       PRES   REMARKS
MARIANNA       PTSUNNY   89  72  56 SE6       30.03F HX  96           
TALLAHASSEE    FAIR      92  71  50 SW3       30.03F HX  98           
PERRY          FAIR      92  69  47 CALM      30.05F HX  97           
LIVE OAK       MOSUNNY   93  72  49 CALM      30.04F HX 100           
CROSS CITY     TSTM      74  71  93 SE3       30.08S                  
LAKE CITY      FAIR      90  70  51 CALM      30.05F HX  95           
GAINESVILLE    FAIR      90  73  57 CALM      30.05F HX  98           
WILLISTON      FAIR      92  74  56 CALM      30.04F THUNDER HX 101   
PALATKA        FAIR      91  72  52 NE5       30.04F HX  98           
MAYPORT NAS    FAIR      89  76  65 E12       30.05F HX 100           
JACKSONVILLE   FAIR      93  72  50 NW5       30.03F HX 101           
JAX NAS        FAIR      93  67  42 NE7       30.04F HX  96           
JAX CECIL      PTSUNNY   99  72  41 NW5       30.04F HX 107           
FERNANDINA BEA FAIR      87  77  71 SE12      30.05F HX  99           
ST AUGUSTINE   FAIR      89  76  65 SE14      30.06F HX 100           
PALM COAST     SUNNY     88  72  58 SE10      30.05F                  

STATION/POSITION SKY/WX   TEMP    WIND        PRES    WAVE   SWELL
                          AIR SEA DIR/SP/G            HT/PER HT/PER
                          (F)     (DEG/KT/KT) (MB)    (FT/S) (FT/S)
SHELL POINT      NOT AVBL
KEATON BEACH               85     260/  7/  8 1017.8F
CEDAR KEY                  86     250/  6/  7 1018.2F
FERNANDINA                 94 84   90/  5/  8 1018.7
30.7N   81.3W                 85                N/A     2/ 8
MAYPORT                    85 81  100/  7/ 11 1018.6
31.4N   80.9W              82 85  170/ 10/ 12 1017.8F   2/ 9   2/ 9
ST AUGUSTINE               82 78  110/ 10/ 11 1017.9F

$$
FLZ040-043>046-052-053-057-058-063-144-212000-
INTERIOR CENTRAL FLORIDA
  
CITY           SKY/WX    TMP DP  RH WIND       PRES   REMARKS
OCALA          PTSUNNY   90  73  57 SE6       30.04F HX  98           
LEESBURG       FAIR      90  73  57 VRB6      30.05F HX  98           
SANFORD        LGT RAIN  80  74  81 E7        30.06R                  
ORLANDO EXEC   FAIR      90  70  51 E9        30.03F THUNDER HX  95   
ORLANDO INTL   TSTM      80  73  79 S6        30.04S                  
KISSIMMEE      TSTM      81  72  74 SE12      30.05F                  
WINTER HAVEN   FAIR      93  71  48 SE7       30.05F HX 100           
LAKELAND       PTSUNNY   90  72  55 CALM      30.04F HX  96           
BARTOW         TSTM      90  73  58 SE7       30.04F HX  98           
SEBRING        FAIR      78  71  79 NE8       30.05F                  
OKEECHOBEE     FAIR      88  73  62 SE8       30.04F HX  96           

$$
FLZ041-047-054-059-064-141-147-212000-
EAST CENTRAL FLORIDA
  
CITY           SKY/WX    TMP DP  RH WIND       PRES   REMARKS
ORMOND BEACH   MOSUNNY   84  75  74 E8        30.06F                  
DAYTONA BEACH  PTSUNNY   88  77  69 E10       30.06F THUNDER HX 100   
DELAND         TSTM      81  77  89 SE18G24   30.07R                  
NEW SMYRNA BEA MOSUNNY   84  75  74 SE12      30.08F                  
JFK SPACE CTR  SUNNY     91  64  41 SE10      30.05F                  
TITUSVILLE     MOSUNNY   93  72  49 SE17      30.07F HX 100           
CAPE CANAVERAL MOSUNNY   90  56  31 SE9       30.05F                  
PATRICK AFB    FAIR      88  79  73 SE12      30.06F HX 102           
MELBOURNE      FAIR      88  76  67 SE13      30.06F HX  99           
VERO BEACH     FAIR      88  75  65 E13       30.05F HX  97           
FT PIERCE      FAIR      88  72  58 SE15      30.05F                  

STATION/POSITION SKY/WX   TEMP    WIND        PRES    WAVE   SWELL
                          AIR SEA DIR/SP/G            HT/PER HT/PER
                          (F)     (DEG/KT/KT) (MB)    (FT/S) (FT/S)
28.5N   80.2W              84 85  140/  8/ 10 1017.9F   1/ 8   2/ 8
28.9N   78.5W              85 87  150/  8/ 10   N/A
TRIDENT PIER               89 84  130/  8/ 11 1019.7
28.4N   80.5W                 84                N/A     1/ 8
27.5N   80.2W                 83                N/A     1/ 8

$$
FLZ050-056-061-142-242-148-248-149-249-151-251-155-255-
160-260-212000-
WEST CENTRAL FLORIDA
  
CITY           SKY/WX    TMP DP  RH WIND       PRES   REMARKS
CRYSTAL RIVER  PTSUNNY   88  73  62 W7        30.04F HX  96           
INVERNESS      FAIR      91  77  62 SW6       30.04F HX 105           
BROOKSVILLE    FAIR      92  74  55 W7        30.05F HX 101           
CLEARWATER AIR CLOUDY    73  70  88 CALM      30.05F                  
ST PETE CLEARW LGT RAIN  78  72  81 W8        30.04F                  
TAMPA INTL     PTSUNNY   84  73  69 W12G20    30.03F                  
TAMPA EXEC     FAIR      90  72  55 CALM      30.03F HX  96           
PLANT CITY     FAIR     N/A N/A N/A MISG      30.04F                  
MACDILL AFB    FAIR      86  75  68 W8        30.03F HX  95           
PETER O KNIGHT FAIR      88  75  66 W10G17    30.04F HX  97           
ST PETERSBURG  FAIR      84  72  67 NW8G20    30.02F                  
SARASOTA       FAIR      89  76  65 W10       30.02F HX 100           
VENICE         FAIR      91  75  59 SW14      30.04F HX 102           

STATION/POSITION SKY/WX   TEMP    WIND        PRES    WAVE   SWELL
                          AIR SEA DIR/SP/G            HT/PER HT/PER
                          (F)     (DEG/KT/KT) (MB)    (FT/S) (FT/S)
27.3N   84.2W                 87                N/A     2/ 5
CLEARWATER BEACH           77 88  100/  4/ 10 1018.5
MIDDLE TAMPA BAY           85     290/ 10/ 12 1017.9
VENICE                     85 86  220/ 11/ 12 1017.0F

$$
FLZ066-069-070-075>078-162-262-165-265-212000-
SOUTHWEST FLORIDA AND KEYS
  
CITY           SKY/WX    TMP DP  RH WIND       PRES   REMARKS
PUNTA GORDA    FAIR      90  72  55 W12       30.03F HX  97           
FT MYERS       FAIR      90  72  55 SW13      30.01F HX  97           
SOUTHWEST INTL FAIR      90  73  57 W10       30.02F HX  98           
MARCO ISLAND   FAIR      92  75  57 MISG      30.03F HX 103           
IMMOKALEE      FAIR      95  70  43 SE7G14    30.00F HX 101           
MARATHON       FAIR      87  73  62 SE14G29   30.05F                  
KEY WEST NAS   PTSUNNY   91  74  57 SE10      30.04F HX 100           
KEY WEST INTL  FAIR      88  75  65 SE10      30.04F HX  97           

STATION/POSITION SKY/WX   TEMP    WIND        PRES    WAVE   SWELL
                          AIR SEA DIR/SP/G            HT/PER HT/PER
                          (F)     (DEG/KT/KT) (MB)    (FT/S) (FT/S)
NAPLES                     87 87              1017.0
26.0N   85.6W              85 86   60/  4/  6 1017.3F   2/ 5   2/ 5
DRY TORTUGAS               85     140/  9/ 10 1017.5F
SAND KEY                   85     110/ 10/ 12 1016.2F
SOMBRERO KEY               82      80/ 14/ 19 1017.5
LONG KEY                   80                 1016.7F

$$
FLZ067-068-071>074-168-172>174-212000-
SOUTHEAST FLORIDA 
  
CITY           SKY/WX    TMP DP  RH WIND       PRES   REMARKS
W PALM BEACH   PTSUNNY   90  72  55 SE15      30.04F HX  97           
BOCA RATON     SUNNY     91  73  55 SE16      30.05F HX 100           
FT LAUDER-EXEC FAIR      88  74  63 E14       30.04F HX  96           
FT LAUDERDALE  PTSUNNY   88  74  63 E14       30.04F HX  96           
POMPANO BEACH  FAIR      88  74  63 SE13      30.04F HX  96           
PEMBROKE PINES FAIR      90  73  57 E15G21    30.05F HX  98           
OPA LOCKA      FAIR      89  74  60 E12       30.04F HX  98           
MIAMI          PTSUNNY   91  71  51 SE14G21   30.04F HX  97           
WEST KENDALL   FAIR      91  75  59 SE15G22   30.03F HX 101           
HOMESTEAD      FAIR      90  77  66 E9        30.03F HX 102           

STATION/POSITION SKY/WX   TEMP    WIND        PRES    WAVE   SWELL
                          AIR SEA DIR/SP/G            HT/PER HT/PER
                          (F)     (DEG/KT/KT) (MB)    (FT/S) (FT/S)
PORT EVERGLADES            87     110/  4/ 12 1017.9
VIRGINIA KEY               85 89   80/  9/ 11 1017.2
LAKE WORTH                 83 85  130/ 12/ 13 1019.1
FOWEY ROCKS                83 85   90/ 14/ 15 1017.6F
SETTLEMENT POINT           83     120/  8/  9 1018.0F

$$